Flag for U.S.A. Weather past 2 weeks in Flint, Michigan, U.S.A.

Now
83 °F

Sunny.


Feels Like: 83 °F
Forecast: 64 / 85 °F
Wind: 10 mph from West

Location: Bishop International Airport

Current Time: Jul 29, 2015 at 9:10:28 PM

Latest Report: Jul 29, 2015 at 7:53 PM


Visibility: 10 mi

Pressure: 29.87 "Hg

Humidity: 43%

Dew point: 58 °F

Location of FlintLocation

Historic Weather in Flint — Graph

°F

Flint temperature yesterday

Maximum temperature yesterday: 91 °F (at 2:53 PM)
Minimum temperature yesterday: 65 °F (at 6:53 AM)
Average temperature yesterday: 79 °F

Past Weeks' High & Low Weather Summary

 TemperatureHumidityPressure
High91 °F (Jul 28, 2:53 PM)93% (Jul 26, 6:59 AM)30.11 "Hg (Jul 26, 6:59 AM)
Low50 °F (Jul 16, 5:53 AM)33% (Jul 27, 4:53 PM)29.65 "Hg (Jul 14, 7:53 PM)
Average75 °F65%29.91 "Hg
* Reported Jul 14 7:53 PM — Jul 29 7:53 PM, Flint, Weather by CustomWeather, © 2015

Note: Actual official high and low records may vary slightly from our data, if they occured in-between our weather recording intervals... More about our weather records

Advertising

Flint weather history for previous 24 hours

 ConditionsComfort  
Time TempWeatherWind HumidityBarometerVisibility
7:53 PM
Wed, Jul 29
83 °FSunny.10 mph43%29.87 "Hg10 mi
6:53 PM87 °FPassing clouds.15 mph55%29.85 "Hg10 mi
5:53 PM89 °FPassing clouds.23 mph57%29.84 "Hg10 mi
4:53 PM88 °FPartly sunny.12 mph63%29.84 "Hg9 mi
3:53 PM88 °FScattered clouds.12 mph67%29.86 "Hg10 mi
2:55 PM81 °FThunderstorms. Cloudy.18 mph82%29.89 "Hg4 mi
1:53 PM88 °FMostly cloudy.9 mph61%29.87 "Hg10 mi
12:53 PM89 °FScattered clouds.9 mph59%29.89 "Hg10 mi
11:53 AM87 °FSunny.8 mph61%29.90 "Hg10 mi
10:53 AM85 °FScattered clouds.9 mph61%29.92 "Hg10 mi
9:53 AM82 °FSunny.8 mph63%29.93 "Hg10 mi
8:53 AM80 °FPassing clouds.7 mph64%29.94 "Hg10 mi
7:53 AM73 °FPassing clouds.5 mph81%29.94 "Hg9 mi
6:53 AM68 °FPartly cloudy.No wind84%29.94 "Hg9 mi
5:53 AM68 °FClear.No wind82%29.93 "Hg7 mi
4:53 AM68 °FClear.5 mph82%29.93 "Hg10 mi
3:53 AM67 °FClear.3 mph79%29.95 "Hg10 mi
2:53 AM67 °FClear.No wind85%29.98 "Hg10 mi
1:53 AM73 °FClear.3 mph71%29.98 "Hg10 mi
12:53 AM70 °FClear.7 mph81%29.98 "Hg10 mi
11:53 PM
Tue, Jul 28
72 °FClear.5 mph76%29.99 "Hg10 mi
10:53 PM77 °FPassing clouds.6 mph62%29.99 "Hg10 mi
9:53 PM79 °FSunny.6 mph56%29.96 "Hg10 mi
Weather by CustomWeather, © 2015

See weather overviewHow to use our weather pages